Jackson Hawkins Field, MS

7:37 AM CST on November 22, 2019 (GMT -0600)
Hawkins

Weather History for KHKS - July, 2019

Change the Weather History Date:

Friday, July 19, 2019

  Actual Average (WUND) Record (WUND)
Temperature  
Mean Temperature 85 °F -  
Max Temperature 93 °F - - (-1)
Min Temperature 77 °F - - (-1)
Cooling Degree Days 20    
Growing Degree Days 35 (Base 50)    
Moisture  
Dew Point 76 °F    
Average Humidity 77    
Maximum Humidity 96    
Minimum Humidity 54    
Precipitation  
Precipitation 0.00 in - - ()
Sea Level Pressure  
Sea Level Pressure 30.02 in    
Wind  
Wind Speed 5 mph (SW)    
Max Wind Speed 9 mph    
Max Gust Speed -    
Visibility 10 miles    
Events      
Averages and records for this station are not official NWS values.
T = Trace of Precipitation, MM = Missing Value Source: NWS Daily Summary

Daily Weather History Graph

Daily Weather History Graph

Search for Another Location

Airport or City:

Astronomy

Jul. 19, 2019 Rise Set
Actual Time 6:07 AM CDT 8:07 PM CDT
Civil Twilight 5:39 AM CDT 8:34 PM CDT
Nautical Twilight 5:06 AM CDT 9:07 PM CDT
Astronomical Twilight 4:30 AM CDT 9:43 PM CDT
Moon 10:12 PM CDT (7/19) 8:28 AM CDT (7/19)
Length of Visible Light 14h 55m
Length of Day
14h 00m
Waning Gibbous, 93% of the Moon is Illuminated
Jul 19
Waning Gibbous
Jul 24
Last Quarter
Jul 31
New
Aug 7
First Quarter
Aug 15
Full

Hourly Weather History & Observations

Time (CDT) Temp. Heat Index Dew Point Humidity Pressure Visibility Wind Dir Wind Speed Gust Speed Precip Events Conditions
12:53 AM 79.0 °F - 77.0 °F 94% 30.01 in 10.0 mi South 5.8 mph - N/A   Clear
1:53 AM 78.1 °F - 77.0 °F 96% 30.00 in 10.0 mi SSE 5.8 mph - N/A   Clear
2:53 AM 78.1 °F - 77.0 °F 96% 29.99 in 10.0 mi SSW 3.5 mph - N/A   Clear
3:53 AM 78.1 °F - 75.9 °F 93% 29.99 in 10.0 mi SW 3.5 mph - N/A   Clear
4:53 AM 77.0 °F - 75.9 °F 96% 30.00 in 10.0 mi SW 4.6 mph - N/A   Clear
5:53 AM 77.0 °F - 75.9 °F 96% 30.02 in 10.0 mi WSW 3.5 mph - N/A   Clear
6:53 AM 78.1 °F - 75.9 °F 93% 30.04 in 10.0 mi Calm Calm - N/A   Clear
7:53 AM 80.1 °F 86.4 °F 78.1 °F 94% 30.06 in 10.0 mi West 3.5 mph - N/A   Clear
8:53 AM 82.9 °F 91.8 °F 77.0 °F 82% 30.09 in 10.0 mi WNW 6.9 mph - N/A   Scattered Clouds
9:53 AM 84.9 °F 95.3 °F 77.0 °F 77% 30.08 in 10.0 mi WNW 5.8 mph - N/A   Scattered Clouds
10:53 AM 87.1 °F 96.3 °F 75.0 °F 67% 30.09 in 10.0 mi Variable 4.6 mph - N/A   Partly Cloudy
11:53 AM 88.0 °F 97.5 °F 75.0 °F 65% 30.09 in 10.0 mi West 5.8 mph - N/A   Scattered Clouds
12:53 PM 90.0 °F 100.2 °F 75.0 °F 61% 30.06 in 10.0 mi Variable 3.5 mph - N/A   Clear
1:53 PM 90.0 °F 99.0 °F 73.9 °F 59% 30.04 in 10.0 mi WSW 8.1 mph - N/A   Scattered Clouds
2:53 PM 91.9 °F 101.3 °F 73.9 °F 55% 30.02 in 10.0 mi WSW 9.2 mph - N/A   Scattered Clouds
3:53 PM 91.0 °F 99.3 °F 73.0 °F 55% 30.01 in 10.0 mi SW 6.9 mph - N/A   Scattered Clouds
4:53 PM 93.0 °F 103.2 °F 73.9 °F 54% 30.00 in 10.0 mi WSW 8.1 mph - N/A   Scattered Clouds
5:53 PM 91.0 °F 100.4 °F 73.9 °F 57% 29.98 in 10.0 mi WSW 9.2 mph - N/A   Scattered Clouds
6:53 PM 89.1 °F 98.0 °F 73.9 °F 61% 29.99 in 10.0 mi West 5.8 mph - N/A   Scattered Clouds
7:53 PM 87.1 °F 96.3 °F 75.0 °F 67% 29.99 in 10.0 mi Calm Calm - N/A   Clear
8:53 PM 84.9 °F 94.1 °F 75.9 °F 74% 30.00 in 10.0 mi Calm Calm - N/A   Clear
9:53 PM 82.9 °F 90.8 °F 75.9 °F 79% 30.01 in 10.0 mi Calm Calm - N/A   Clear
10:53 PM 82.0 °F 89.4 °F 75.9 °F 82% 30.01 in 10.0 mi SE 5.8 mph - N/A   Clear
11:53 PM 81.0 °F 87.9 °F 77.0 °F 88% 30.00 in 10.0 mi South 9.2 mph - N/A   Scattered Clouds